Temp
57 57 56 55 55 56 56 56 55 56 57 57 57 57 57 57 57 57 57 58 58 58 58 58 58 58 58 59 60 60 60 60 60 59 58 58 58 59 60 59 59 58 58 57 57 57 57 58 58 58 58 57 57 57 57 57 57 57 57 56 56 56 56 56 57 58 60 63 64
57 56 55 53 53 55 56 56 56 56 57 58 57 57 57 57 57 57 57 57 58 58 58 58 58 58 58 59 59 59 60 60 60 59 58 58 58 58 58 58 57 57 56 56 55 55 55 55 56 56 56 56 56 57 57 57 57 56 56 56 56 56 56 55 55 56 57 58 60
56 55 55 55 56 56 56 56 56 56 57 57 57 57 57 57 57 57 57 57 57 58 58 58 56 57 57 58 58 58 59 59 59 59 58 58 57 57 57 56 56 55 54 54 54 53 53 53 53 53 53 55 55 55 56 56 56 56 56 56 56 56 55 55 55 55 55 55 55
55 55 55 55 56 56 56 56 56 56 56 56 56 56 56 57 57 57 57 57 57 57 57 57 55 55 55 56 57 58 58 58 58 58 57 57 56 56 56 56 55 55 54 53 53 53 52 52 51 50 51 52 53 54 55 55 55 55 55 55 55 55 55 54 54 54 54 53 54
55 54 54 55 55 55 55 55 55 56 56 55 56 56 56 56 55 56 56 55 56 57 57 56 54 53 54 56 57 58 58 58 56 56 57 56 56 56 55 55 55 54 53 53 52 52 52 51 50 49 49 50 51 52 53 54 54 55 55 55 55 55 55 54 54 54 53 53 53
53 53 53 53 54 55 55 55 55 55 55 54 55 55 55 56 56 56 56 56 57 57 57 54 53 53 54 56 57 58 58 58 57 56 56 55 55 55 55 54 54 54 53 52 52 51 51 50 49 49 49 50 51 51 51 51 52 53 53 54 54 54 54 54 54 53 53 52 52
56 55 55 54 54 54 54 54 54 54 54 54 55 55 55 55 55 55 55 56 56 56 55 53 53 54 55 56 56 57 57 57 57 56 56 55 55 54 54 54 54 53 53 53 52 51 50 49 48 47 47 47 49 49 49 49 50 51 51 52 53 53 54 54 54 53 53 52 52
59 59 58 57 56 55 54 55 55 55 55 55 55 55 55 54 54 54 55 56 56 55 54 53 54 55 55 55 54 55 55 55 56 56 56 55 55 54 53 52 52 52 52 52 52 51 50 49 47 47 46 46 46 47 47 47 48 49 50 51 51 51 52 53 53 53 52 52 52
58 58 58 58 58 57 57 57 56 56 56 55 55 55 55 54 54 54 55 55 55 54 54 54 55 55 55 54 53 53 53 53 54 54 54 54 53 53 52 52 52 52 52 52 51 50 49 48 47 46 46 46 46 46 46 46 47 48 49 49 49 49 50 52 52 52 52 52 51
57 57 57 57 57 57 57 57 56 56 56 56 56 55 55 53 54 54 55 55 54 54 55 55 55 55 54 54 53 53 53 53 54 54 53 53 52 52 52 53 53 52 52 51 51 50 49 47 46 45 45 45 45 45 45 45 45 46 47 47 47 47 48 49 50 50 51 51 50
57 57 57 57 57 57 57 57 57 57 56 56 56 56 55 54 55 55 55 54 54 54 55 54 54 53 52 52 52 52 53 54 54 54 54 54 54 53 53 54 54 53 53 52 51 49 48 47 46 45 44 44 44 44 44 44 45 45 45 45 46 46 47 47 48 48 49 49 48
56 57 57 57 57 57 57 57 57 57 56 56 57 57 56 56 56 56 55 55 54 54 54 54 53 53 52 52 52 52 53 53 53 54 55 55 55 55 54 54 55 54 53 52 51 49 48 47 46 45 44 44 44 44 44 44 44 44 44 43 44 45 45 45 46 46 47 47 46
56 56 56 57 57 57 56 56 56 56 56 56 56 57 56 56 56 56 55 55 54 54 54 54 53 53 53 52 53 53 53 54 54 54 55 55 55 55 54 54 54 54 53 52 51 49 48 47 46 45 44 44 43 43 43 43 43 43 43 43 43 43 44 44 45 45 45 44 44
56 56 56 56 56 56 56 56 56 56 56 56 56 56 56 56 56 56 55 55 54 54 53 53 53 53 53 53 53 53 53 54 54 54 54 54 54 54 54 54 54 54 53 52 50 49 48 47 46 45 45 44 43 43 43 43 43 43 43 42 42 43 43 43 43 43 43 43 42
55 56 56 56 55 55 55 55 55 55 55 55 56 56 56 56 56 55 55 54 54 53 53 52 52 52 52 52 52 52 52 53 53 53 53 53 53 53 53 53 53 53 52 51 50 49 48 47 46 46 45 44 44 43 43 43 43 43 43 43 42 42 42 42 42 42 42 41 41
55 55 55 55 55 55 54 55 55 55 55 55 55 55 55 55 55 54 53 53 53 52 52 51 51 51 51 51 51 51 51 51 52 52 52 51 52 52 52 52 52 52 51 50 49 48 48 47 47 46 46 45 44 44 43 43 43 43 43 43 43 42 42 41 41 41 41 41 41
54 55 55 55 54 54 54 54 54 54 54 54 54 54 54 54 54 53 52 52 52 52 51 51 51 50 50 50 50 50 50 50 50 51 51 51 51 51 51 51 51 51 51 50 49 48 48 47 47 46 46 45 44 44 43 43 43 43 43 43 42 42 42 41 41 41 41 41 40
54 54 54 54 54 54 53 53 53 53 53 53 53 53 53 52 52 52 52 51 51 51 50 50 50 50 49 49 49 49 49 49 49 50 50 50 50 50 50 51 51 51 50 49 48 48 47 47 47 46 46 45 45 44 43 43 43 43 42 42 42 42 42 41 41 41 41 41 40
53 53 53 53 53 53 53 53 53 53 52 52 52 51 51 51 51 51 51 51 51 50 50 50 49 49 49 48 48 48 48 48 48 49 49 50 50 50 50 50 50 51 50 49 48 48 47 47 47 46 45 45 44 44 43 43 43 42 42 42 42 42 41 41 41 41 41 41 40
53 53 53 53 53 53 53 53 53 52 52 51 51 50 50 50 50 50 50 50 50 50 50 49 49 49 48 48 47 47 47 48 48 48 48 49 49 49 49 49 50 50 50 49 48 48 47 47 46 46 45 44 44 43 43 43 42 42 42 42 41 41 41 41 41 41 41 41 40
52 52 52 53 53 52 52 52 52 52 52 51 50 50 49 49 48 48 48 49 49 49 48 47 48 48 48 47 47 46 46 47 47 47 48 48 48 48 49 49 49 49 49 48 48 47 47 47 46 46 45 44 44 43 43 42 42 42 41 41 41 41 41 41 41 41 41 40 40
52 52 53 53 52 52 52 52 51 51 51 51 50 50 49 49 48 48 48 48 48 48 47 47 47 47 47 47 46 46 46 46 46 46 46 47 48 48 48 48 48 48 48 48 47 47 47 46 46 45 45 44 43 43 42 42 41 41 41 40 40 40 41 40 40 40 40 40 40
52 53 53 53 52 52 51 51 50 50 50 49 49 49 49 49 48 48 47 47 47 46 46 46 46 46 45 45 45 45 44 44 44 45 45 46 47 47 47 47 47 47 47 47 47 46 46 45 45 45 44 43 43 43 42 42 41 41 40 40 40 40 40 40 40 40 40 40 41
52 52 52 52 52 52 52 51 51 50 49 49 49 49 49 48 47 47 46 46 46 46 45 45 45 45 45 45 44 44 44 44 44 44 45 45 45 46 46 46 47 47 47 47 46 45 45 44 44 44 44 43 43 43 42 42 41 41 40 40 39 39 40 40 40 40 40 40 40
52 52 52 52 52 52 52 51 51 50 50 50 50 49 48 48 46 46 45 45 45 45 45 44 44 44 44 44 44 44 44 43 43 43 44 44 44 45 45 46 46 47 46 46 45 44 43 43 43 43 43 43 43 43 42 42 41 41 40 40 39 39 39 39 40 40 40 40 40
51 51 51 51 51 51 51 51 51 51 50 50 50 49 48 48 46 45 45 44 44 44 44 44 44 43 43 43 43 43 43 43 43 43 43 43 44 44 45 45 45 46 46 46 44 43 42 42 42 42 42 43 43 42 42 41 41 41 40 40 40 39 39 38 39 39 40 40 40
51 51 51 51 51 50 50 50 50 50 50 50 49 49 48 47 46 45 44 44 44 44 44 43 43 43 42 43 43 42 42 42 43 43 43 43 43 44 44 45 45 46 45 44 43 42 41 42 42 42 42 43 42 42 41 41 41 40 40 40 40 39 39 38 38 38 39 39 40
50 50 50 50 50 50 50 50 50 50 50 49 49 48 48 47 46 45 44 43 43 43 43 43 43 43 43 42 42 42 42 42 42 43 43 43 44 44 44 45 45 45 45 44 42 41 41 41 41 41 41 41 42 42 41 40 40 40 40 39 39 39 39 39 39 39 39 39 39
49 49 49 49 49 49 49 49 49 49 49 49 48 47 47 46 45 44 43 43 42 42 42 42 42 42 42 41 41 41 42 42 42 42 42 43 43 44 44 45 45 45 44 43 42 41 41 41 41 41 40 40 41 40 40 40 39 39 39 39 39 39 39 39 40 39 39 38 38
49 49 48 48 47 47 48 48 48 48 48 48 47 46 46 45 44 43 42 42 42 42 42 42 42 41 41 41 41 41 41 41 41 41 41 42 42 43 43 44 45 45 44 42 42 41 41 41 41 40 40 39 39 39 39 39 39 38 38 38 39 39 39 40 40 39 39 38 38
48 48 47 47 46 46 47 47 48 47 47 46 46 45 44 43 43 43 43 42 42 42 42 42 42 41 40 40 40 40 40 40 40 40 40 41 41 42 43 44 44 45 44 42 41 41 41 41 40 40 39 38 38 38 38 38 38 38 38 38 39 39 40 40 39 39 38 38 38
47 46 46 46 45 45 46 46 46 46 46 45 45 44 43 43 42 43 43 42 42 42 42 42 41 40 40 40 40 40 40 40 40 40 40 41 41 42 43 43 44 44 43 41 41 41 41 40 40 39 38 37 37 37 38 37 37 38 38 38 39 40 40 40 39 38 38 38 38
45 45 45 44 44 44 45 45 44 44 44 44 43 43 43 43 42 42 42 42 41 41 41 41 40 39 39 39 39 39 39 39 39 39 40 40 41 42 42 43 44 43 42 40 40 40 40 40 39 38 37 36 36 37 37 37 37 37 38 38 39 40 40 39 39 38 38 39 39
42 43 43 43 43 43 42 42 41 41 41 41 41 41 41 42 41 40 40 40 41 41 40 40 40 39 39 39 38 38 38 38 39 39 40 41 41 41 42 42 43 43 41 39 40 39 39 38 38 37 36 35 36 36 37 36 37 37 37 38 39 39 39 39 38 39 39 39 39
42 42 42 41 41 40 40 39 39 39 38 38 38 39 40 40 40 40 40 40 40 40 40 40 40 39 39 39 38 38 38 38 39 39 40 41 41 41 41 42 42 41 40 39 39 38 38 37 36 36 36 35 36 36 36 36 36 36 37 37 38 38 38 38 38 39 39 40 39
41 40 39 39 39 39 38 38 38 38 37 37 37 37 37 38 39 39 40 40 39 39 39 39 39 39 38 38 38 38 38 38 39 39 40 40 41 41 41 41 40 39 39 39 38 37 37 36 36 36 36 36 36 36 36 36 36 36 36 36 36 36 36 37 38 39 39 40 40
40 38 37 37 39 39 38 37 37 36 36 36 36 36 37 37 38 39 39 39 39 38 38 38 38 38 37 37 37 38 38 39 39 39 40 40 41 41 40 39 38 37 37 38 37 37 36 36 36 36 36 36 36 36 36 36 36 36 36 35 35 36 36 38 39 39 39 40 39
40 39 38 38 38 38 38 37 36 35 35 35 36 37 37 38 38 39 39 38 38 37 37 37 37 37 37 37 37 38 38 39 39 39 39 40 40 40 38 36 36 36 36 36 36 36 36 36 36 36 36 36 36 36 36 35 35 35 35 35 35 36 37 39 40 40 40 40 39
40 40 39 38 38 37 37 37 36 35 35 35 36 37 38 38 38 38 38 38 38 37 36 36 36 37 37 37 37 37 38 38 39 39 39 40 40 38 37 35 34 34 35 35 36 36 36 36 36 36 36 36 36 36 36 35 35 35 35 35 36 37 39 40 40 40 40 39 39
39 39 39 38 37 37 37 37 36 36 36 36 37 37 38 37 37 38 38 38 37 37 36 36 36 37 37 37 37 37 37 38 39 39 39 39 38 37 36 34 34 34 34 35 35 36 36 36 36 36 37 36 37 36 36 36 35 35 35 37 38 39 40 40 41 40 39 39 39
39 38 38 38 37 37 37 37 37 37 37 37 37 37 37 37 37 37 37 37 36 36 36 36 36 37 37 37 37 37 37 37 38 39 39 38 37 36 35 34 34 34 34 35 36 36 36 36 36 37 37 37 37 37 37 36 35 36 37 38 39 40 40 40 40 39 39 38 38
MSLP
1013.79 1013.75 1013.67 1013.63 1013.55 1013.47 1013.35 1013.19 1013.03 1012.87 1012.71 1012.55 1012.43 1012.27 1012.15 1011.99 1011.91 1011.75 1011.63 1011.51 1011.43 1011.31 1011.19 1011.07 1010.95 1010.83 1010.71 1010.59 1010.47 1010.35 1010.19 1010.03 1009.87 1009.79 1009.75 1009.75 1009.71 1009.63 1009.59 1009.59 1009.51 1009.51 1009.51 1009.51 1009.51 1009.47 1009.35 1009.19 1008.99 1008.79 1008.67 1008.55 1008.51 1008.51 1008.47 1008.51 1008.75 1008.95 1008.99 1008.99 1009.07 1009.23 1009.35 1009.39 1009.27 1009.11 1008.91 1008.67 1008.51
1013.67 1013.63 1013.63 1013.59 1013.51 1013.39 1013.27 1013.11 1012.95 1012.79 1012.67 1012.51 1012.39 1012.27 1012.15 1012.03 1011.91 1011.75 1011.59 1011.51 1011.35 1011.23 1011.07 1010.95 1010.87 1010.79 1010.67 1010.55 1010.47 1010.35 1010.23 1010.07 1009.91 1009.79 1009.75 1009.71 1009.67 1009.63 1009.63 1009.63 1009.59 1009.59 1009.63 1009.59 1009.59 1009.55 1009.47 1009.35 1009.23 1009.07 1008.79 1008.63 1008.51 1008.35 1008.23 1008.27 1008.55 1008.75 1008.83 1008.83 1008.87 1008.95 1009.03 1009.15 1009.19 1009.15 1009.03 1008.91 1008.83
1013.59 1013.55 1013.51 1013.47 1013.35 1013.23 1013.15 1013.03 1012.91 1012.79 1012.67 1012.51 1012.43 1012.31 1012.19 1012.03 1011.87 1011.67 1011.51 1011.39 1011.23 1011.11 1010.95 1010.79 1010.71 1010.63 1010.55 1010.43 1010.35 1010.27 1010.19 1010.03 1009.95 1009.83 1009.71 1009.63 1009.63 1009.59 1009.63 1009.59 1009.59 1009.59 1009.63 1009.63 1009.63 1009.63 1009.55 1009.51 1009.43 1009.35 1009.11 1008.83 1008.63 1008.35 1008.11 1008.07 1008.27 1008.51 1008.67 1008.71 1008.75 1008.79 1008.79 1008.79 1008.91 1008.99 1008.99 1008.95 1008.99
1013.43 1013.39 1013.35 1013.31 1013.23 1013.11 1012.99 1012.91 1012.79 1012.71 1012.59 1012.47 1012.35 1012.23 1012.11 1011.99 1011.79 1011.63 1011.47 1011.27 1011.11 1010.95 1010.83 1010.67 1010.59 1010.47 1010.39 1010.31 1010.23 1010.15 1010.07 1009.95 1009.87 1009.79 1009.67 1009.59 1009.55 1009.51 1009.51 1009.51 1009.51 1009.51 1009.55 1009.55 1009.59 1009.59 1009.51 1009.51 1009.51 1009.39 1009.23 1009.03 1008.79 1008.47 1008.19 1008.03 1008.11 1008.27 1008.43 1008.51 1008.67 1008.67 1008.67 1008.63 1008.75 1008.87 1008.95 1009.03 1009.07
1013.31 1013.23 1013.23 1013.15 1013.07 1012.95 1012.91 1012.79 1012.67 1012.59 1012.47 1012.35 1012.27 1012.15 1012.03 1011.91 1011.75 1011.55 1011.35 1011.23 1011.07 1010.87 1010.71 1010.55 1010.47 1010.35 1010.27 1010.15 1010.07 1009.95 1009.87 1009.79 1009.71 1009.63 1009.59 1009.51 1009.47 1009.39 1009.35 1009.35 1009.35 1009.39 1009.43 1009.47 1009.51 1009.51 1009.51 1009.47 1009.47 1009.35 1009.23 1009.07 1008.87 1008.67 1008.35 1008.19 1008.07 1008.07 1008.11 1008.27 1008.51 1008.63 1008.55 1008.51 1008.59 1008.71 1008.83 1009.03 1009.15
1013.23 1013.15 1013.07 1012.99 1012.95 1012.83 1012.71 1012.67 1012.51 1012.43 1012.35 1012.23 1012.15 1012.07 1011.95 1011.79 1011.63 1011.51 1011.31 1011.11 1010.95 1010.79 1010.63 1010.51 1010.39 1010.31 1010.19 1010.03 1009.91 1009.79 1009.63 1009.59 1009.51 1009.47 1009.39 1009.35 1009.31 1009.27 1009.23 1009.23 1009.23 1009.23 1009.27 1009.35 1009.47 1009.51 1009.51 1009.43 1009.35 1009.23 1009.11 1008.99 1008.79 1008.63 1008.51 1008.39 1008.23 1008.07 1007.95 1008.07 1008.23 1008.35 1008.39 1008.39 1008.39 1008.47 1008.67 1008.95 1009.23
1013.07 1013.03 1012.95 1012.87 1012.79 1012.71 1012.59 1012.51 1012.39 1012.27 1012.19 1012.11 1011.99 1011.87 1011.75 1011.63 1011.51 1011.35 1011.23 1011.07 1010.87 1010.67 1010.55 1010.43 1010.27 1010.15 1010.07 1009.95 1009.79 1009.63 1009.51 1009.35 1009.27 1009.23 1009.19 1009.15 1009.11 1009.11 1009.11 1009.07 1009.07 1009.07 1009.11 1009.19 1009.31 1009.35 1009.39 1009.39 1009.35 1009.23 1009.07 1008.95 1008.83 1008.67 1008.59 1008.51 1008.39 1008.19 1007.95 1007.83 1007.87 1008.07 1008.23 1008.23 1008.11 1008.15 1008.35 1008.67 1009.03
1012.99 1012.95 1012.83 1012.79 1012.67 1012.55 1012.47 1012.35 1012.23 1012.11 1012.03 1011.95 1011.83 1011.71 1011.55 1011.43 1011.31 1011.19 1011.03 1010.91 1010.71 1010.59 1010.43 1010.31 1010.15 1010.03 1009.95 1009.79 1009.67 1009.51 1009.39 1009.27 1009.15 1009.07 1008.99 1008.99 1008.95 1008.95 1008.95 1008.95 1008.95 1008.95 1008.95 1008.99 1009.07 1009.19 1009.23 1009.31 1009.23 1009.11 1009.03 1008.95 1008.87 1008.79 1008.67 1008.63 1008.51 1008.35 1008.07 1007.79 1007.67 1007.79 1007.95 1008.03 1007.95 1007.95 1008.03 1008.23 1008.67
1012.95 1012.87 1012.79 1012.67 1012.51 1012.39 1012.27 1012.15 1012.07 1011.95 1011.83 1011.71 1011.63 1011.47 1011.35 1011.23 1011.07 1010.95 1010.83 1010.71 1010.55 1010.43 1010.31 1010.19 1010.03 1009.91 1009.79 1009.71 1009.59 1009.47 1009.35 1009.27 1009.15 1009.03 1008.95 1008.95 1008.91 1008.87 1008.87 1008.87 1008.87 1008.79 1008.79 1008.87 1008.95 1009.03 1009.07 1009.07 1009.07 1008.99 1008.95 1008.87 1008.79 1008.79 1008.71 1008.67 1008.59 1008.43 1008.19 1007.95 1007.79 1007.71 1007.71 1007.79 1007.79 1007.79 1007.87 1008.03 1008.39
1012.91 1012.79 1012.67 1012.51 1012.39 1012.23 1012.11 1011.95 1011.87 1011.79 1011.63 1011.51 1011.35 1011.23 1011.11 1010.99 1010.87 1010.79 1010.67 1010.51 1010.43 1010.27 1010.19 1010.07 1009.95 1009.87 1009.75 1009.63 1009.51 1009.43 1009.35 1009.23 1009.07 1008.99 1008.91 1008.87 1008.83 1008.79 1008.71 1008.67 1008.67 1008.67 1008.67 1008.71 1008.83 1008.95 1008.95 1008.91 1008.91 1008.83 1008.79 1008.79 1008.79 1008.71 1008.67 1008.67 1008.63 1008.51 1008.31 1008.07 1007.91 1007.75 1007.67 1007.67 1007.71 1007.75 1007.79 1007.91 1008.23
1012.79 1012.67 1012.55 1012.39 1012.23 1012.07 1011.95 1011.83 1011.71 1011.55 1011.43 1011.31 1011.15 1011.03 1010.95 1010.79 1010.67 1010.55 1010.47 1010.35 1010.27 1010.19 1010.07 1010.03 1009.95 1009.87 1009.79 1009.67 1009.59 1009.43 1009.31 1009.15 1009.03 1008.95 1008.83 1008.79 1008.79 1008.71 1008.63 1008.51 1008.47 1008.43 1008.43 1008.47 1008.67 1008.79 1008.83 1008.79 1008.71 1008.67 1008.67 1008.71 1008.71 1008.71 1008.67 1008.67 1008.63 1008.51 1008.35 1008.23 1008.07 1007.87 1007.71 1007.67 1007.75 1007.79 1007.79 1007.83 1008.07
1012.67 1012.55 1012.39 1012.27 1012.11 1011.95 1011.83 1011.67 1011.51 1011.39 1011.23 1011.11 1010.95 1010.83 1010.71 1010.63 1010.47 1010.35 1010.27 1010.23 1010.15 1010.07 1009.95 1009.91 1009.87 1009.83 1009.75 1009.63 1009.59 1009.47 1009.31 1009.15 1009.03 1008.91 1008.79 1008.67 1008.63 1008.55 1008.47 1008.35 1008.27 1008.23 1008.19 1008.19 1008.35 1008.59 1008.67 1008.59 1008.51 1008.51 1008.51 1008.59 1008.63 1008.67 1008.63 1008.59 1008.51 1008.47 1008.35 1008.31 1008.19 1007.95 1007.79 1007.67 1007.71 1007.79 1007.87 1007.95 1008.15
1012.55 1012.39 1012.23 1012.11 1011.95 1011.83 1011.67 1011.51 1011.35 1011.23 1011.07 1010.91 1010.79 1010.67 1010.51 1010.39 1010.31 1010.23 1010.11 1010.07 1009.99 1009.95 1009.87 1009.79 1009.79 1009.79 1009.71 1009.63 1009.51 1009.43 1009.27 1009.11 1008.99 1008.83 1008.75 1008.63 1008.51 1008.43 1008.35 1008.23 1008.11 1008.03 1007.95 1007.95 1008.11 1008.31 1008.39 1008.35 1008.31 1008.31 1008.35 1008.43 1008.51 1008.51 1008.51 1008.51 1008.47 1008.39 1008.35 1008.31 1008.23 1008.07 1007.91 1007.79 1007.71 1007.75 1007.91 1008.07 1008.23
1012.39 1012.27 1012.11 1011.95 1011.79 1011.63 1011.51 1011.39 1011.23 1011.07 1010.87 1010.71 1010.63 1010.47 1010.35 1010.23 1010.11 1010.07 1009.99 1009.91 1009.83 1009.79 1009.75 1009.71 1009.67 1009.67 1009.63 1009.55 1009.51 1009.35 1009.27 1009.11 1008.99 1008.83 1008.67 1008.55 1008.43 1008.35 1008.23 1008.07 1007.95 1007.83 1007.79 1007.79 1007.87 1008.03 1008.07 1008.07 1008.03 1008.03 1008.07 1008.23 1008.27 1008.35 1008.39 1008.43 1008.39 1008.31 1008.23 1008.23 1008.19 1008.11 1008.03 1007.95 1007.87 1007.87 1007.95 1008.11 1008.35
1012.23 1012.07 1011.95 1011.79 1011.63 1011.51 1011.35 1011.23 1011.07 1010.91 1010.71 1010.55 1010.43 1010.31 1010.23 1010.11 1009.99 1009.95 1009.87 1009.79 1009.71 1009.67 1009.63 1009.63 1009.59 1009.55 1009.51 1009.47 1009.39 1009.35 1009.23 1009.11 1008.95 1008.79 1008.67 1008.51 1008.35 1008.23 1008.11 1007.95 1007.79 1007.67 1007.63 1007.59 1007.67 1007.79 1007.79 1007.67 1007.71 1007.79 1007.83 1007.95 1008.03 1008.11 1008.23 1008.27 1008.27 1008.23 1008.19 1008.07 1008.03 1007.99 1007.99 1008.03 1008.03 1007.99 1008.03 1008.15 1008.39
1012.07 1011.95 1011.79 1011.63 1011.51 1011.35 1011.23 1011.07 1010.91 1010.75 1010.55 1010.39 1010.27 1010.15 1010.07 1009.95 1009.87 1009.79 1009.75 1009.63 1009.59 1009.55 1009.51 1009.51 1009.47 1009.39 1009.35 1009.35 1009.31 1009.23 1009.15 1009.03 1008.91 1008.75 1008.55 1008.39 1008.23 1008.11 1007.95 1007.79 1007.63 1007.51 1007.51 1007.51 1007.51 1007.51 1007.47 1007.39 1007.39 1007.51 1007.59 1007.67 1007.79 1007.91 1007.99 1008.07 1008.07 1008.11 1008.11 1008.07 1007.99 1007.95 1007.95 1007.95 1008.03 1008.07 1008.11 1008.23 1008.43
1011.87 1011.75 1011.63 1011.47 1011.35 1011.19 1011.03 1010.87 1010.71 1010.55 1010.39 1010.23 1010.11 1010.03 1009.95 1009.79 1009.75 1009.67 1009.63 1009.55 1009.51 1009.43 1009.35 1009.31 1009.31 1009.27 1009.23 1009.11 1009.11 1009.07 1009.03 1008.91 1008.79 1008.67 1008.47 1008.23 1008.07 1007.95 1007.79 1007.59 1007.39 1007.31 1007.27 1007.35 1007.35 1007.31 1007.23 1007.11 1007.11 1007.23 1007.35 1007.43 1007.59 1007.67 1007.75 1007.83 1007.95 1007.99 1008.03 1008.03 1008.03 1007.99 1007.95 1007.95 1007.95 1008.03 1008.15 1008.35 1008.51
1011.71 1011.55 1011.43 1011.27 1011.11 1010.95 1010.79 1010.67 1010.51 1010.35 1010.23 1010.11 1009.99 1009.87 1009.79 1009.67 1009.63 1009.51 1009.47 1009.39 1009.35 1009.27 1009.23 1009.11 1009.11 1009.07 1009.03 1008.95 1008.91 1008.87 1008.83 1008.75 1008.63 1008.47 1008.31 1008.11 1007.95 1007.79 1007.63 1007.39 1007.19 1007.03 1006.95 1007.03 1007.07 1007.07 1006.99 1006.91 1006.91 1006.95 1007.07 1007.23 1007.35 1007.47 1007.55 1007.63 1007.79 1007.83 1007.91 1007.95 1008.03 1008.07 1008.03 1008.03 1007.99 1008.03 1008.11 1008.31 1008.51
1011.51 1011.35 1011.23 1011.07 1010.95 1010.75 1010.59 1010.47 1010.31 1010.15 1010.03 1009.91 1009.79 1009.71 1009.63 1009.51 1009.43 1009.35 1009.27 1009.19 1009.15 1009.07 1008.99 1008.91 1008.87 1008.83 1008.79 1008.71 1008.67 1008.67 1008.59 1008.51 1008.39 1008.27 1008.11 1007.95 1007.79 1007.63 1007.43 1007.19 1006.99 1006.79 1006.67 1006.67 1006.67 1006.75 1006.75 1006.67 1006.67 1006.71 1006.79 1006.95 1007.07 1007.23 1007.35 1007.47 1007.59 1007.71 1007.79 1007.91 1007.95 1008.07 1008.07 1008.15 1008.15 1008.15 1008.23 1008.31 1008.47
1011.27 1011.15 1010.99 1010.83 1010.71 1010.51 1010.35 1010.23 1010.07 1009.95 1009.79 1009.71 1009.63 1009.51 1009.43 1009.31 1009.23 1009.15 1009.07 1008.95 1008.91 1008.79 1008.75 1008.67 1008.63 1008.55 1008.51 1008.47 1008.43 1008.35 1008.35 1008.31 1008.19 1008.07 1007.87 1007.71 1007.55 1007.35 1007.19 1006.95 1006.71 1006.51 1006.35 1006.27 1006.27 1006.35 1006.39 1006.39 1006.39 1006.43 1006.55 1006.67 1006.83 1006.99 1007.15 1007.31 1007.43 1007.55 1007.63 1007.79 1007.87 1007.99 1008.11 1008.19 1008.27 1008.35 1008.39 1008.47 1008.55
1011.07 1010.95 1010.79 1010.63 1010.47 1010.31 1010.19 1010.03 1009.87 1009.75 1009.63 1009.51 1009.39 1009.27 1009.19 1009.07 1009.03 1008.95 1008.83 1008.71 1008.63 1008.55 1008.51 1008.43 1008.35 1008.31 1008.23 1008.23 1008.19 1008.11 1008.07 1007.99 1007.95 1007.79 1007.63 1007.47 1007.27 1007.07 1006.91 1006.75 1006.51 1006.23 1006.07 1005.99 1005.95 1005.95 1006.03 1006.07 1006.07 1006.15 1006.27 1006.39 1006.59 1006.79 1006.95 1007.15 1007.27 1007.39 1007.51 1007.63 1007.79 1007.95 1008.07 1008.19 1008.27 1008.39 1008.51 1008.59 1008.71
1010.87 1010.71 1010.59 1010.39 1010.27 1010.11 1009.95 1009.83 1009.67 1009.55 1009.43 1009.31 1009.19 1009.07 1008.95 1008.83 1008.75 1008.67 1008.51 1008.43 1008.35 1008.27 1008.23 1008.15 1008.11 1008.07 1008.03 1007.95 1007.95 1007.87 1007.79 1007.71 1007.67 1007.55 1007.39 1007.23 1007.03 1006.79 1006.59 1006.43 1006.23 1005.95 1005.79 1005.71 1005.63 1005.63 1005.67 1005.75 1005.79 1005.83 1005.99 1006.15 1006.31 1006.51 1006.75 1006.95 1007.07 1007.23 1007.35 1007.47 1007.63 1007.79 1007.99 1008.15 1008.27 1008.39 1008.51 1008.67 1008.79
1010.67 1010.51 1010.35 1010.19 1010.03 1009.91 1009.75 1009.59 1009.47 1009.35 1009.23 1009.07 1008.95 1008.83 1008.71 1008.55 1008.47 1008.35 1008.23 1008.19 1008.07 1008.03 1007.95 1007.95 1007.87 1007.83 1007.79 1007.75 1007.71 1007.63 1007.55 1007.47 1007.35 1007.23 1007.11 1006.95 1006.71 1006.47 1006.27 1006.07 1005.87 1005.63 1005.43 1005.35 1005.31 1005.35 1005.35 1005.43 1005.51 1005.55 1005.67 1005.87 1006.03 1006.27 1006.51 1006.79 1006.91 1007.03 1007.15 1007.35 1007.51 1007.67 1007.91 1008.07 1008.23 1008.39 1008.55 1008.75 1008.91
1010.43 1010.31 1010.15 1009.99 1009.79 1009.67 1009.51 1009.35 1009.23 1009.11 1008.99 1008.87 1008.71 1008.59 1008.47 1008.31 1008.23 1008.11 1008.03 1007.95 1007.87 1007.79 1007.79 1007.75 1007.67 1007.63 1007.55 1007.51 1007.51 1007.43 1007.35 1007.23 1007.03 1006.87 1006.71 1006.51 1006.35 1006.11 1005.95 1005.71 1005.47 1005.23 1005.07 1004.95 1004.95 1004.95 1005.03 1005.11 1005.19 1005.31 1005.43 1005.59 1005.79 1005.99 1006.27 1006.55 1006.71 1006.87 1006.99 1007.15 1007.31 1007.51 1007.75 1007.95 1008.19 1008.35 1008.51 1008.75 1008.91
1010.23 1010.07 1009.95 1009.79 1009.63 1009.47 1009.31 1009.19 1009.07 1008.91 1008.75 1008.63 1008.47 1008.31 1008.19 1008.07 1007.99 1007.91 1007.79 1007.75 1007.67 1007.63 1007.55 1007.51 1007.51 1007.43 1007.35 1007.27 1007.23 1007.15 1007.07 1006.95 1006.79 1006.55 1006.35 1006.11 1005.95 1005.75 1005.55 1005.35 1005.11 1004.91 1004.67 1004.55 1004.51 1004.51 1004.63 1004.75 1004.79 1004.95 1005.07 1005.31 1005.51 1005.75 1006.07 1006.35 1006.51 1006.67 1006.79 1006.95 1007.07 1007.31 1007.55 1007.83 1008.07 1008.27 1008.47 1008.67 1008.87
1010.03 1009.87 1009.71 1009.55 1009.39 1009.23 1009.11 1008.95 1008.83 1008.67 1008.51 1008.35 1008.23 1008.07 1007.95 1007.83 1007.79 1007.71 1007.63 1007.55 1007.51 1007.39 1007.35 1007.35 1007.31 1007.27 1007.19 1007.07 1006.99 1006.91 1006.79 1006.67 1006.47 1006.27 1006.07 1005.79 1005.51 1005.31 1005.11 1004.95 1004.71 1004.51 1004.27 1004.07 1004.07 1004.07 1004.19 1004.27 1004.35 1004.51 1004.67 1004.95 1005.19 1005.47 1005.79 1006.07 1006.27 1006.39 1006.55 1006.67 1006.83 1007.03 1007.31 1007.59 1007.91 1008.15 1008.35 1008.63 1008.79
1009.79 1009.63 1009.43 1009.31 1009.15 1009.03 1008.91 1008.79 1008.63 1008.47 1008.31 1008.15 1007.99 1007.87 1007.75 1007.63 1007.55 1007.51 1007.43 1007.39 1007.31 1007.23 1007.19 1007.19 1007.11 1007.07 1006.99 1006.87 1006.75 1006.59 1006.47 1006.27 1006.07 1005.91 1005.63 1005.35 1005.07 1004.79 1004.59 1004.39 1004.19 1003.99 1003.83 1003.67 1003.63 1003.67 1003.75 1003.83 1003.95 1004.11 1004.35 1004.59 1004.87 1005.19 1005.51 1005.79 1006.03 1006.23 1006.35 1006.51 1006.63 1006.79 1007.03 1007.31 1007.63 1007.95 1008.23 1008.51 1008.79
1009.51 1009.35 1009.23 1009.07 1008.95 1008.79 1008.67 1008.55 1008.43 1008.27 1008.07 1007.95 1007.79 1007.63 1007.55 1007.47 1007.39 1007.35 1007.31 1007.23 1007.15 1007.07 1007.03 1006.95 1006.87 1006.83 1006.75 1006.63 1006.43 1006.23 1006.07 1005.95 1005.75 1005.51 1005.23 1004.99 1004.71 1004.39 1004.11 1003.87 1003.67 1003.55 1003.47 1003.39 1003.35 1003.35 1003.35 1003.43 1003.59 1003.83 1004.07 1004.35 1004.63 1004.95 1005.19 1005.47 1005.75 1005.95 1006.19 1006.35 1006.51 1006.67 1006.87 1007.07 1007.35 1007.67 1007.99 1008.35 1008.67
1009.31 1009.15 1009.03 1008.87 1008.75 1008.59 1008.47 1008.35 1008.19 1008.03 1007.91 1007.71 1007.59 1007.51 1007.39 1007.35 1007.27 1007.23 1007.15 1007.07 1006.99 1006.91 1006.79 1006.67 1006.59 1006.55 1006.47 1006.27 1006.07 1005.87 1005.71 1005.51 1005.35 1005.15 1004.95 1004.67 1004.39 1004.11 1003.79 1003.55 1003.35 1003.23 1003.11 1003.07 1003.07 1003.07 1003.03 1003.07 1003.31 1003.59 1003.87 1004.15 1004.47 1004.75 1005.03 1005.27 1005.51 1005.79 1006.03 1006.23 1006.39 1006.55 1006.75 1006.95 1007.23 1007.47 1007.79 1008.11 1008.51
1009.11 1008.95 1008.83 1008.71 1008.55 1008.43 1008.31 1008.15 1007.99 1007.83 1007.71 1007.55 1007.47 1007.35 1007.27 1007.23 1007.15 1007.07 1006.99 1006.91 1006.79 1006.71 1006.59 1006.47 1006.35 1006.23 1006.07 1005.95 1005.75 1005.55 1005.35 1005.11 1004.95 1004.79 1004.63 1004.35 1004.07 1003.79 1003.47 1003.27 1003.07 1002.91 1002.79 1002.71 1002.75 1002.75 1002.75 1002.83 1003.07 1003.39 1003.75 1004.07 1004.35 1004.67 1004.95 1005.15 1005.35 1005.63 1005.95 1006.15 1006.35 1006.47 1006.63 1006.79 1007.03 1007.27 1007.59 1007.95 1008.35
1008.99 1008.79 1008.67 1008.55 1008.39 1008.27 1008.11 1007.95 1007.79 1007.67 1007.59 1007.47 1007.35 1007.23 1007.15 1007.07 1006.99 1006.87 1006.79 1006.67 1006.55 1006.39 1006.23 1006.19 1006.07 1005.87 1005.71 1005.55 1005.39 1005.23 1004.95 1004.67 1004.51 1004.39 1004.23 1004.03 1003.75 1003.43 1003.15 1002.91 1002.75 1002.59 1002.43 1002.35 1002.35 1002.39 1002.51 1002.67 1002.91 1003.31 1003.71 1004.07 1004.43 1004.67 1004.91 1005.07 1005.31 1005.55 1005.83 1006.07 1006.23 1006.35 1006.51 1006.67 1006.91 1007.19 1007.51 1007.83 1008.23
1008.87 1008.71 1008.59 1008.43 1008.27 1008.11 1007.99 1007.91 1007.79 1007.63 1007.51 1007.39 1007.27 1007.15 1007.07 1006.95 1006.79 1006.67 1006.55 1006.47 1006.31 1006.15 1005.99 1005.83 1005.71 1005.51 1005.35 1005.23 1005.07 1004.79 1004.55 1004.35 1004.15 1003.95 1003.79 1003.63 1003.31 1002.99 1002.71 1002.51 1002.31 1002.11 1001.95 1001.91 1001.95 1002.07 1002.23 1002.51 1002.83 1003.31 1003.79 1004.27 1004.55 1004.79 1004.95 1005.11 1005.31 1005.55 1005.79 1006.07 1006.19 1006.31 1006.43 1006.63 1006.87 1007.15 1007.43 1007.71 1008.07
1008.79 1008.67 1008.51 1008.35 1008.23 1008.07 1007.95 1007.87 1007.79 1007.63 1007.51 1007.35 1007.23 1007.07 1006.95 1006.79 1006.63 1006.51 1006.35 1006.23 1006.11 1005.95 1005.75 1005.55 1005.35 1005.23 1005.03 1004.83 1004.63 1004.35 1004.15 1003.95 1003.75 1003.59 1003.39 1003.19 1002.95 1002.67 1002.35 1002.07 1001.83 1001.63 1001.51 1001.51 1001.63 1001.79 1002.07 1002.39 1002.83 1003.39 1003.95 1004.35 1004.63 1004.83 1004.99 1005.19 1005.43 1005.71 1005.99 1006.23 1006.31 1006.39 1006.51 1006.67 1006.87 1007.11 1007.39 1007.75 1008.07
1008.79 1008.67 1008.51 1008.39 1008.27 1008.15 1008.03 1007.91 1007.79 1007.63 1007.51 1007.35 1007.15 1006.99 1006.83 1006.67 1006.47 1006.31 1006.11 1005.95 1005.83 1005.63 1005.43 1005.23 1005.07 1004.87 1004.67 1004.51 1004.31 1004.03 1003.75 1003.51 1003.31 1003.15 1002.95 1002.71 1002.51 1002.23 1001.95 1001.63 1001.35 1001.15 1001.07 1001.19 1001.35 1001.59 1001.95 1002.35 1002.95 1003.51 1004.07 1004.43 1004.67 1004.83 1005.03 1005.23 1005.55 1005.87 1006.15 1006.35 1006.51 1006.55 1006.67 1006.79 1006.95 1007.23 1007.51 1007.83 1008.23
1008.83 1008.75 1008.63 1008.51 1008.35 1008.23 1008.07 1007.95 1007.79 1007.63 1007.47 1007.23 1007.03 1006.87 1006.67 1006.51 1006.35 1006.11 1005.91 1005.67 1005.51 1005.31 1005.07 1004.87 1004.67 1004.51 1004.31 1004.11 1003.95 1003.67 1003.43 1003.15 1002.87 1002.67 1002.47 1002.27 1002.07 1001.79 1001.47 1001.15 1000.91 1000.79 1000.79 1000.91 1001.15 1001.51 1001.95 1002.47 1003.03 1003.59 1004.07 1004.35 1004.63 1004.79 1005.03 1005.31 1005.63 1005.95 1006.23 1006.51 1006.67 1006.79 1006.91 1006.99 1007.19 1007.35 1007.63 1007.95 1008.31
1008.95 1008.91 1008.79 1008.63 1008.43 1008.23 1008.07 1007.91 1007.71 1007.51 1007.35 1007.11 1006.91 1006.71 1006.51 1006.27 1006.07 1005.87 1005.63 1005.43 1005.23 1004.95 1004.67 1004.47 1004.31 1004.15 1003.95 1003.75 1003.51 1003.31 1003.07 1002.79 1002.47 1002.19 1001.95 1001.79 1001.59 1001.31 1000.99 1000.71 1000.63 1000.59 1000.63 1000.79 1001.07 1001.51 1001.99 1002.51 1003.07 1003.55 1003.95 1004.23 1004.51 1004.75 1005.03 1005.35 1005.71 1006.03 1006.31 1006.55 1006.79 1006.95 1007.07 1007.19 1007.35 1007.55 1007.83 1008.11 1008.47
1009.11 1009.03 1008.87 1008.67 1008.43 1008.23 1008.03 1007.83 1007.67 1007.43 1007.19 1006.95 1006.75 1006.51 1006.23 1006.03 1005.79 1005.51 1005.35 1005.11 1004.91 1004.59 1004.31 1004.07 1003.95 1003.79 1003.59 1003.35 1003.11 1002.87 1002.59 1002.35 1002.07 1001.79 1001.55 1001.31 1001.07 1000.83 1000.63 1000.51 1000.51 1000.55 1000.63 1000.83 1001.19 1001.63 1002.07 1002.59 1003.07 1003.43 1003.79 1004.07 1004.35 1004.67 1005.07 1005.43 1005.79 1006.11 1006.39 1006.67 1006.91 1007.07 1007.19 1007.31 1007.51 1007.71 1007.95 1008.27 1008.55
1009.19 1009.07 1008.91 1008.67 1008.43 1008.19 1007.95 1007.75 1007.51 1007.31 1007.03 1006.79 1006.51 1006.23 1005.95 1005.75 1005.47 1005.23 1004.99 1004.83 1004.59 1004.31 1004.03 1003.79 1003.59 1003.35 1003.15 1002.95 1002.79 1002.47 1002.11 1001.91 1001.63 1001.39 1001.11 1000.83 1000.59 1000.43 1000.39 1000.47 1000.55 1000.67 1000.79 1000.99 1001.31 1001.71 1002.15 1002.59 1002.99 1003.35 1003.63 1003.91 1004.23 1004.63 1005.03 1005.43 1005.79 1006.15 1006.43 1006.67 1006.91 1007.11 1007.27 1007.35 1007.55 1007.79 1008.07 1008.39 1008.71
1009.27 1009.07 1008.87 1008.67 1008.39 1008.11 1007.87 1007.63 1007.35 1007.07 1006.79 1006.51 1006.23 1005.95 1005.67 1005.47 1005.23 1004.95 1004.75 1004.59 1004.35 1004.07 1003.79 1003.51 1003.23 1002.95 1002.79 1002.59 1002.35 1002.07 1001.67 1001.35 1001.11 1000.91 1000.67 1000.35 1000.15 1000.07 1000.23 1000.39 1000.63 1000.83 1000.99 1001.15 1001.39 1001.79 1002.19 1002.55 1002.95 1003.27 1003.51 1003.79 1004.11 1004.51 1004.95 1005.35 1005.75 1006.11 1006.39 1006.67 1006.87 1007.07 1007.23 1007.35 1007.59 1007.91 1008.23 1008.55 1008.87
1009.31 1009.11 1008.87 1008.63 1008.35 1008.07 1007.79 1007.47 1007.15 1006.91 1006.67 1006.35 1006.03 1005.71 1005.43 1005.23 1004.99 1004.71 1004.51 1004.35 1004.07 1003.83 1003.55 1003.23 1002.87 1002.59 1002.39 1002.23 1001.99 1001.63 1001.23 1000.83 1000.51 1000.27 1000.07 999.95 999.87 999.91 1000.07 1000.35 1000.63 1000.91 1001.11 1001.27 1001.47 1001.79 1002.15 1002.55 1002.91 1003.23 1003.51 1003.75 1004.07 1004.47 1004.87 1005.23 1005.67 1006.03 1006.31 1006.51 1006.67 1006.91 1007.11 1007.35 1007.63 1007.95 1008.35 1008.71 1009.03
1009.27 1009.07 1008.83 1008.55 1008.27 1007.95 1007.63 1007.31 1006.99 1006.67 1006.43 1006.19 1005.87 1005.55 1005.23 1004.99 1004.75 1004.51 1004.27 1004.07 1003.83 1003.59 1003.27 1002.95 1002.51 1002.23 1001.99 1001.83 1001.63 1001.23 1000.79 1000.35 999.95 999.67 999.63 999.59 999.67 999.79 1000.03 1000.31 1000.55 1000.87 1001.15 1001.35 1001.51 1001.79 1002.19 1002.51 1002.83 1003.15 1003.43 1003.71 1004.07 1004.39 1004.79 1005.15 1005.55 1005.91 1006.15 1006.31 1006.43 1006.67 1006.95 1007.31 1007.67 1008.07 1008.43 1008.79 1009.15
Wind_Speed
5 5 4 4 5 5 5 5 5 5 5 6 6 6 6 6 6 6 6 6 6 6 6 6 6 7 8 11 12 13 13 12 11 10 9 9 10 11 12 12 10 9 8 8 9 10 10 11 10 10 9 9 11 11 12 13 14 14 13 11 11 11 11 12 13 14 15 16 12
5 5 5 5 5 5 5 5 5 5 6 6 6 7 7 7 7 7 7 7 6 6 6 6 6 7 9 11 12 12 13 13 13 12 10 10 10 10 10 10 9 9 9 9 8 8 8 9 10 9 8 8 9 10 11 12 15 15 15 13 11 10 10 12 12 13 13 13 12
5 5 5 5 6 6 5 5 6 7 7 7 6 6 7 7 7 7 7 7 8 8 7 7 6 7 8 10 10 11 11 12 13 12 11 10 10 10 10 9 9 9 9 9 9 8 8 8 8 8 8 8 9 9 10 12 15 16 15 14 10 8 8 9 10 10 9 7 9
5 5 5 6 7 7 7 6 7 8 8 7 6 6 6 6 7 7 7 8 8 8 8 7 7 7 7 9 10 11 11 12 12 12 12 11 10 10 10 9 10 10 10 10 10 10 9 8 6 6 7 9 10 10 10 9 12 13 12 11 9 7 7 6 6 6 5 5 7
5 5 5 6 7 7 7 7 8 8 7 6 6 6 6 6 6 7 7 7 8 8 9 9 8 8 8 9 11 12 13 13 12 12 11 12 12 11 10 10 10 10 10 10 11 11 10 9 6 6 6 8 8 8 8 9 10 10 10 9 8 8 7 6 5 5 5 4 5
5 6 6 6 7 8 7 7 8 8 7 6 7 8 8 7 7 8 8 9 9 10 11 11 10 9 10 11 12 13 13 13 12 12 11 12 11 11 11 10 10 9 9 9 10 11 10 9 7 6 7 8 8 8 8 8 8 9 9 9 9 8 8 8 7 6 6 6 6
8 9 9 9 9 8 8 8 8 8 8 7 8 10 10 9 9 10 11 10 10 10 10 9 9 10 11 11 12 13 12 12 12 12 12 11 11 11 11 10 10 10 10 10 10 10 9 8 6 6 6 6 7 7 7 7 7 8 9 9 8 8 8 10 8 8 9 12 11
11 12 12 12 11 10 10 10 9 9 8 8 9 10 11 11 11 12 12 11 10 9 8 7 9 10 11 11 11 12 12 12 12 12 12 12 12 11 11 10 10 10 10 10 10 10 9 8 6 6 6 5 5 5 5 6 7 9 9 9 7 7 7 8 9 9 11 14 15
11 12 13 13 12 12 12 12 11 11 10 10 11 12 12 12 12 12 11 10 9 8 8 8 10 11 12 12 12 11 10 9 10 10 11 10 10 11 10 10 10 10 10 10 10 11 10 8 6 6 6 5 5 5 5 6 7 9 9 8 6 6 7 8 9 10 12 15 16
12 13 13 13 13 13 13 13 12 12 12 13 13 13 12 12 12 11 10 9 8 9 9 10 11 12 13 13 12 11 10 9 9 9 9 9 10 10 10 10 11 11 10 10 10 10 10 8 7 7 6 5 6 6 6 6 7 8 7 5 5 7 7 7 8 10 12 14 15
13 14 13 13 13 14 14 14 13 13 13 13 13 13 13 12 12 11 10 9 9 10 11 11 11 12 12 12 12 11 11 11 10 9 9 10 11 11 12 12 12 12 12 10 10 9 9 8 8 8 8 6 7 7 7 7 8 8 7 5 5 7 8 8 8 9 11 13 15
14 14 14 14 14 15 14 14 13 13 13 13 14 14 13 12 12 12 11 11 11 11 11 11 11 12 12 11 11 12 12 12 13 12 12 12 12 13 14 14 14 14 13 12 11 9 9 9 9 9 9 8 7 6 7 8 9 8 7 6 6 7 8 10 10 9 9 11 13
14 14 14 14 15 15 15 14 13 12 13 14 14 13 13 12 13 13 12 12 12 11 10 10 11 11 11 11 12 13 14 14 15 16 15 15 15 15 15 16 16 15 14 13 11 10 10 11 11 11 11 10 8 8 8 9 10 10 9 8 8 8 9 10 10 10 10 11 12
14 15 15 15 15 15 14 14 13 12 13 14 14 13 12 12 12 12 12 12 12 11 11 10 10 11 11 12 13 14 15 16 17 18 19 19 18 18 18 18 18 17 15 12 12 12 13 13 12 12 12 12 11 10 10 10 10 11 11 11 10 10 10 10 10 11 12 13 13
15 15 16 16 16 15 14 14 12 12 13 14 13 13 12 12 12 12 12 12 12 12 11 10 10 10 11 13 14 15 16 17 18 19 20 20 20 20 20 20 19 18 16 14 13 14 15 15 14 13 13 13 13 12 12 12 11 11 11 12 12 12 11 11 11 12 13 15 14
15 16 16 16 16 15 15 14 12 12 12 13 13 13 12 12 11 12 12 12 12 11 11 11 11 11 11 12 13 14 15 17 18 19 20 20 20 20 20 20 19 18 17 17 16 15 15 15 14 14 14 14 14 13 13 13 12 12 12 12 12 12 13 13 13 14 14 16 16
16 16 17 17 17 17 16 15 13 12 13 14 14 13 13 12 11 11 12 12 12 12 12 13 12 12 12 13 13 13 14 15 17 18 19 19 20 20 20 20 18 17 17 18 18 17 16 15 14 14 14 15 14 14 14 14 13 12 12 12 12 12 13 14 15 15 16 16 16
17 17 17 17 18 17 17 16 15 14 14 15 14 14 13 12 12 12 12 13 13 14 14 15 13 13 13 14 13 13 13 15 16 17 18 19 20 21 21 20 19 18 17 18 19 18 17 16 15 15 14 14 14 14 14 14 13 13 12 12 12 12 13 13 14 15 16 17 17
17 17 17 18 18 18 18 17 17 16 15 15 14 14 13 13 13 13 13 14 14 15 15 15 14 14 14 14 14 14 14 15 17 18 20 20 21 21 21 21 19 18 17 17 18 19 18 17 16 15 15 14 14 14 14 14 13 13 13 13 12 12 12 13 13 14 15 16 16
17 18 18 18 18 18 18 17 17 17 16 15 14 14 14 14 14 14 15 15 15 15 15 15 15 15 15 15 15 15 15 14 17 19 20 20 21 22 22 21 20 19 18 17 18 18 18 17 17 16 16 15 15 14 14 14 13 13 13 12 13 13 13 13 13 13 14 15 15
18 18 18 18 18 17 17 17 17 17 16 16 16 16 16 15 15 15 15 15 15 15 14 14 14 15 15 16 16 16 15 15 16 18 19 20 21 22 22 20 20 19 18 18 18 18 18 18 17 16 16 16 15 15 15 14 14 14 14 12 12 13 14 13 13 13 14 14 15
18 18 18 18 18 17 17 17 16 16 16 16 16 16 16 16 15 15 15 15 14 14 14 13 14 14 15 15 16 16 16 15 16 17 18 19 20 21 20 18 19 18 18 18 18 18 18 18 18 17 16 15 16 16 15 14 14 14 14 13 13 14 14 14 13 14 14 14 14
19 19 18 18 18 18 18 17 17 16 16 16 16 17 17 16 16 15 15 14 13 13 13 13 13 13 14 14 15 15 16 16 17 18 19 20 20 20 20 19 19 19 18 17 17 17 17 17 17 16 16 15 16 16 16 15 15 14 15 15 15 15 15 14 14 14 14 14 14
19 19 18 17 18 19 19 18 18 17 17 17 17 17 17 16 15 15 14 14 14 13 12 11 11 12 13 14 15 15 16 17 18 20 21 21 21 20 20 18 18 18 17 15 15 15 15 14 14 15 15 15 16 16 16 16 15 15 15 16 16 16 15 15 15 14 14 14 13
20 20 20 19 19 20 19 19 19 19 19 19 18 18 17 16 15 14 14 14 14 14 13 13 12 12 12 13 14 15 16 17 19 20 21 22 22 21 20 18 17 15 14 13 16 17 18 16 14 14 14 14 15 15 15 16 16 16 16 16 16 16 16 15 15 15 14 14 12
21 21 20 20 20 20 20 20 20 21 20 20 19 19 18 17 15 14 14 15 15 14 14 14 13 13 13 13 14 15 16 17 18 19 21 21 22 21 20 17 15 14 13 14 17 20 22 20 18 15 14 14 14 14 14 15 16 17 17 17 17 16 16 16 15 15 14 13 13
21 20 20 20 20 20 21 21 21 21 21 20 20 19 18 17 15 15 15 15 15 15 15 14 14 13 13 14 15 16 17 17 18 19 21 21 22 21 20 18 15 13 12 14 17 21 23 23 21 19 16 14 14 14 14 14 16 16 17 17 17 17 17 17 16 15 14 13 13
21 20 20 20 20 21 21 21 21 21 21 21 20 19 18 17 17 16 16 15 15 15 14 13 13 13 12 12 14 16 18 18 18 19 19 20 20 20 19 16 15 13 13 15 18 21 23 23 22 21 18 15 14 13 14 14 15 15 15 15 15 16 17 17 16 16 15 14 13
21 20 20 20 21 21 21 21 21 21 21 20 19 18 17 17 17 16 16 16 16 15 14 13 12 11 11 13 14 16 18 19 19 18 18 19 20 20 19 18 17 16 16 18 19 22 24 24 23 21 19 16 13 11 11 12 13 13 13 12 13 15 16 16 15 15 15 15 14
20 20 20 20 20 20 20 20 21 20 20 18 17 17 17 17 17 16 16 16 16 16 15 13 13 13 14 15 16 17 17 18 18 18 19 20 21 21 20 19 18 17 17 18 20 22 24 24 23 21 19 17 13 11 10 11 11 11 11 11 13 15 16 16 17 16 16 15 15
19 19 19 20 20 19 19 20 20 19 18 17 17 17 17 17 17 17 17 17 17 17 16 16 17 17 17 17 17 18 19 19 19 19 20 21 22 22 21 21 20 19 18 19 21 23 24 24 22 21 19 16 12 10 10 11 11 11 11 12 14 16 16 16 17 17 17 17 17
19 19 19 19 19 18 18 18 18 18 18 19 19 19 18 18 18 18 18 18 18 18 18 18 18 18 18 18 18 19 20 20 20 20 20 20 21 21 21 20 21 20 18 19 21 23 24 23 22 21 18 15 11 10 10 10 11 11 12 14 16 17 17 15 16 17 19 19 18
18 17 17 18 18 18 18 18 17 18 18 19 19 19 20 20 20 19 18 18 17 18 19 19 19 19 18 18 19 20 21 21 21 21 21 21 21 21 21 21 20 18 16 20 22 23 23 23 22 21 18 15 11 10 10 10 9 10 11 13 15 16 17 17 17 18 19 19 17
16 16 17 17 17 17 17 17 17 17 17 18 19 19 20 21 21 20 19 18 17 17 18 18 18 18 18 18 19 20 20 19 20 20 21 21 21 22 22 21 16 12 14 22 24 24 24 24 23 21 18 14 11 10 10 10 9 9 11 12 14 14 15 16 17 18 18 18 16
16 16 17 17 17 17 17 17 17 17 18 18 19 19 20 21 21 21 20 19 18 18 18 18 18 17 17 17 18 19 20 21 21 21 21 21 21 23 23 21 14 12 18 24 25 26 26 26 24 22 18 13 10 10 10 11 10 11 12 13 13 14 15 16 16 17 17 17 16
17 17 17 18 18 18 18 18 18 19 19 19 19 20 20 20 20 20 20 19 19 18 18 18 18 17 18 18 18 19 20 21 21 21 21 21 22 23 22 16 10 14 21 26 27 28 28 27 25 22 18 12 10 9 10 10 10 11 12 13 13 14 15 15 15 15 15 14 15
18 17 17 18 20 20 20 20 19 20 20 20 20 20 20 21 20 20 18 17 17 18 18 18 18 18 19 19 19 19 19 20 21 21 21 22 22 20 15 9 10 16 21 26 28 29 28 27 25 21 17 12 11 10 10 9 9 10 12 13 13 14 14 14 14 14 14 14 14
19 19 19 20 21 21 21 21 21 21 21 21 21 21 21 20 20 19 18 16 16 17 18 18 19 19 20 20 20 20 21 21 21 22 22 23 20 14 10 11 13 16 21 27 29 29 29 27 24 20 16 12 12 11 10 9 10 10 11 12 13 14 14 12 12 12 13 14 15
21 21 22 22 22 22 22 22 22 21 21 21 22 22 21 20 19 18 17 16 16 17 18 19 20 20 20 20 19 20 21 22 22 22 22 20 14 11 13 15 15 17 20 27 29 29 28 27 24 20 17 13 12 11 10 10 11 12 12 12 13 14 14 12 11 11 12 14 17
21 22 22 22 22 23 23 23 23 22 22 22 22 23 22 21 19 18 17 16 16 16 17 18 20 21 20 19 19 19 21 22 22 21 18 14 11 14 17 16 17 18 21 26 29 29 28 26 23 21 17 13 12 11 10 11 12 13 13 13 13 13 13 12 11 11 12 14 16
21 21 22 23 23 23 23 24 24 24 23 23 23 22 21 20 19 18 17 15 16 16 16 17 19 20 20 19 18 19 20 23 21 17 12 11 13 16 17 17 18 19 21 25 28 28 27 26 24 21 18 14 13 12 11 11 12 14 14 14 13 13 12 12 11 11 12 13 13
Wind_Direction
294 298 303 306 303 299 295 292 290 290 292 294 296 297 297 297 295 294 292 291 289 288 287 287 290 293 297 300 302 303 302 301 298 296 295 295 296 298 299 300 303 304 302 297 295 292 288 284 279 272 266 263 260 257 254 251 252 253 253 251 249 248 249 249 247 243 238 233 229
295 298 298 296 292 289 289 290 292 295 298 300 301 301 301 300 297 295 292 289 286 284 282 280 280 283 286 290 294 297 299 300 299 298 295 291 290 291 292 294 297 299 300 298 297 296 294 293 290 284 278 271 265 260 255 250 251 253 254 253 249 244 241 240 240 238 234 231 229
292 291 289 287 287 288 291 294 297 299 300 300 301 300 299 297 295 292 290 287 286 284 282 280 276 275 276 279 283 287 290 293 295 296 294 290 288 286 286 286 287 286 286 285 285 284 285 289 290 287 282 276 270 265 259 252 249 250 252 252 250 242 234 231 231 231 229 224 218
287 285 284 284 287 290 292 294 295 296 297 297 297 296 294 293 291 289 287 286 286 285 284 282 279 275 272 273 274 276 278 282 285 287 287 286 284 281 280 278 278 278 277 274 271 270 270 274 279 282 282 281 275 272 266 257 247 245 246 247 248 243 234 226 222 220 219 216 211
290 287 286 286 290 291 291 291 292 293 293 293 294 293 291 291 289 289 289 289 288 288 287 287 286 283 279 275 274 274 274 275 276 277 278 278 277 276 275 273 273 274 274 273 269 266 264 264 266 269 272 275 274 274 271 265 251 242 238 239 240 238 232 220 208 201 199 203 204
299 297 296 294 294 294 293 292 291 291 291 290 290 290 289 290 290 292 293 293 292 291 291 291 290 289 286 283 280 277 275 272 270 269 269 270 271 271 270 269 268 269 271 271 269 267 264 261 262 263 264 267 269 271 272 268 255 244 234 227 229 230 228 217 199 187 183 187 189
310 309 307 304 301 298 295 294 292 291 290 289 289 288 289 289 289 290 291 292 292 292 292 290 289 288 287 286 284 281 278 273 270 267 266 266 267 268 268 267 266 266 265 265 264 263 261 256 257 259 261 263 267 270 270 265 256 245 233 221 216 217 218 214 200 187 180 179 180
312 311 308 306 303 300 297 296 295 294 293 291 289 289 288 288 288 289 290 291 291 291 291 290 288 288 287 288 287 286 283 280 277 274 271 269 268 267 268 268 268 266 263 261 258 255 252 249 249 250 252 254 258 261 260 257 254 246 235 220 206 200 201 205 196 188 180 176 176
311 308 306 304 302 301 299 298 296 295 294 292 290 289 289 289 288 289 290 290 291 292 294 295 295 295 295 296 296 295 294 290 286 282 277 271 267 266 266 267 267 266 264 260 255 250 246 242 242 242 243 243 245 245 244 243 247 245 238 222 205 196 196 199 193 187 181 174 173
308 306 305 303 301 300 299 298 297 295 293 292 291 290 289 289 289 289 289 290 292 295 298 299 302 303 304 304 305 304 302 297 290 284 278 272 267 264 263 263 264 264 262 259 254 248 243 237 236 236 237 236 234 232 229 227 235 237 236 226 205 193 189 189 187 184 179 172 170
306 304 303 301 301 300 299 299 297 295 294 292 292 291 290 289 289 289 290 292 294 296 298 301 304 305 306 307 306 305 303 300 297 292 286 278 271 267 265 264 264 263 262 259 254 248 242 234 230 229 229 228 227 224 220 216 220 222 223 220 205 190 181 176 177 177 175 168 165
304 302 301 300 300 299 299 298 296 295 293 292 291 291 291 290 291 291 293 294 295 296 298 300 302 304 304 304 304 303 302 301 300 297 293 288 282 277 273 270 269 268 266 262 254 247 240 233 227 223 222 220 218 217 214 211 211 209 207 206 203 192 180 171 169 168 165 161 158
302 301 300 300 299 299 298 297 295 294 292 291 291 291 291 291 292 293 294 294 294 295 297 299 300 300 301 301 301 300 300 299 298 297 295 293 289 286 282 278 276 273 270 264 253 243 235 230 224 220 218 214 212 211 210 208 207 202 198 194 196 192 182 173 166 160 155 153 153
301 300 300 299 299 298 297 296 295 293 292 291 291 291 291 291 292 293 294 293 294 294 295 297 296 296 297 297 298 298 298 297 296 295 294 292 291 289 287 284 282 279 273 266 253 240 232 226 221 217 215 213 210 208 207 207 206 202 196 189 189 186 180 173 165 158 152 151 150
301 300 299 299 298 298 296 296 294 293 292 291 291 291 291 291 292 293 293 293 293 293 294 294 293 293 293 294 295 295 295 295 293 292 291 290 288 287 285 283 282 280 276 268 255 241 230 223 219 216 214 212 209 207 205 205 205 203 198 192 187 181 175 170 165 159 155 152 150
300 300 299 298 298 296 296 295 294 293 292 291 291 291 291 291 291 292 292 292 292 292 291 290 290 291 291 291 292 292 293 292 291 290 289 288 286 283 281 279 278 277 275 270 259 245 231 222 217 214 213 212 209 206 204 203 204 203 200 195 188 180 173 168 164 161 157 154 152
300 299 298 297 296 295 294 294 293 292 292 291 291 291 291 291 291 290 290 290 290 290 289 288 288 289 289 289 289 290 290 290 289 288 287 286 285 283 280 276 274 272 270 267 260 249 235 223 217 214 212 211 209 206 203 201 201 200 198 194 188 181 174 169 165 162 158 156 153
299 298 297 296 295 294 294 293 292 292 292 292 292 292 291 291 290 290 289 288 288 287 287 287 286 286 286 286 287 287 287 287 287 287 286 285 284 282 279 276 272 269 266 264 259 250 239 225 217 213 211 210 208 205 202 199 198 196 194 190 186 180 175 170 167 163 159 157 154
298 297 296 295 295 294 293 293 292 292 292 292 292 291 291 290 289 288 288 286 286 285 285 285 285 284 284 284 285 285 284 285 285 285 285 284 283 281 278 275 272 268 264 261 257 250 240 227 218 212 209 208 206 203 200 197 194 192 189 185 182 177 173 171 167 164 160 157 154
297 296 296 295 295 294 294 293 293 293 292 292 292 291 290 289 288 287 285 284 284 283 283 283 283 283 283 284 284 284 283 283 283 283 283 283 282 280 278 275 271 268 264 261 256 249 240 228 218 212 207 205 203 201 198 195 192 189 185 182 178 175 172 169 166 163 160 157 154
297 296 295 295 294 294 294 293 293 293 292 291 291 290 289 288 287 285 283 282 282 282 282 281 282 283 283 284 284 283 283 282 282 282 282 281 280 278 276 274 271 268 266 262 257 248 238 227 218 210 205 202 200 198 195 192 189 186 183 179 175 172 170 168 165 162 160 157 155
296 296 296 295 295 294 294 293 293 292 291 290 289 289 288 287 286 284 283 282 282 282 282 281 282 282 283 284 284 284 283 282 281 280 279 279 277 275 274 271 270 268 267 264 259 249 237 225 216 208 202 199 196 194 191 188 185 183 180 176 172 170 168 166 164 161 159 157 155
297 296 296 295 294 294 294 293 292 291 290 290 289 288 288 287 286 286 285 285 285 284 284 283 283 283 284 283 283 283 282 281 279 278 277 276 274 273 271 270 270 269 268 266 259 248 235 222 213 205 199 196 193 190 188 185 182 179 177 173 170 168 166 165 163 161 159 157 156
296 296 295 294 294 294 294 293 293 292 291 290 289 289 288 288 288 288 288 288 288 287 287 286 285 285 284 283 282 281 280 279 279 278 277 275 273 272 270 270 270 269 267 263 253 240 228 215 208 201 197 193 190 188 186 183 180 176 173 170 167 166 164 163 162 160 158 156 155
296 295 294 293 293 293 293 293 293 293 292 291 291 290 290 290 290 290 290 291 290 290 289 288 288 287 286 285 283 281 279 278 278 278 277 275 273 271 269 268 268 267 264 258 242 227 215 205 200 196 193 190 188 186 184 182 178 175 171 167 165 163 162 161 161 159 157 155 153
295 294 293 293 293 293 293 293 293 293 292 292 291 291 291 291 291 292 292 292 291 291 291 290 289 288 287 285 283 280 278 276 276 275 275 274 271 268 266 263 263 262 259 252 232 216 205 198 193 189 186 185 183 182 181 180 177 174 170 166 164 162 160 159 159 158 156 154 152
294 294 294 294 294 294 294 294 293 293 292 291 291 291 291 293 293 293 293 292 291 290 290 289 288 287 286 284 281 278 276 275 275 274 273 271 269 266 263 260 259 259 255 244 223 209 199 192 188 184 181 180 178 177 176 175 174 172 169 166 164 161 159 157 156 154 153 151 149
295 295 295 295 295 294 294 294 293 292 292 291 292 292 293 294 294 293 292 291 290 289 288 286 285 285 283 280 277 276 275 275 275 274 273 272 270 267 265 262 262 260 254 241 220 205 195 187 182 179 176 174 173 172 171 169 169 168 166 164 163 160 158 155 154 152 150 147 144
296 296 296 296 296 295 294 294 293 292 292 292 293 294 295 295 294 293 291 290 289 287 286 284 284 282 279 276 275 275 275 275 275 274 274 274 272 270 268 267 267 262 253 241 221 204 192 183 178 174 171 168 167 167 166 165 164 163 163 162 161 160 158 156 153 150 146 142 139
298 298 297 297 296 296 295 294 294 294 294 295 295 296 295 295 293 292 290 288 287 285 284 283 282 280 277 275 275 275 275 274 274 273 273 272 271 270 269 268 268 264 253 236 215 199 188 179 173 168 165 162 160 160 160 160 159 159 159 159 159 158 156 154 150 146 143 140 138
299 299 299 298 298 297 297 296 297 297 297 298 297 297 296 295 293 291 289 288 286 285 284 282 281 279 277 276 275 274 273 273 273 272 271 269 268 267 267 267 267 264 253 229 206 192 182 173 166 161 158 157 156 157 157 156 156 156 157 157 157 156 153 149 146 143 141 139 139
302 302 301 301 300 300 300 301 301 302 301 301 300 298 296 294 292 291 289 288 287 286 285 283 281 280 278 276 274 273 272 272 271 270 269 267 266 266 266 266 266 261 246 215 193 181 173 164 158 155 153 153 152 152 153 150 151 152 153 155 155 154 151 146 142 141 141 140 141
305 305 305 305 306 306 306 307 306 306 304 303 300 298 296 294 292 291 289 288 287 285 284 283 281 280 278 276 275 273 272 271 270 269 268 267 266 266 266 266 264 254 229 194 179 169 162 154 151 149 149 150 148 146 145 142 142 146 150 153 153 150 146 142 140 140 141 141 141
310 311 312 312 312 312 311 310 308 307 304 302 299 297 295 293 292 291 289 288 286 284 283 281 279 278 277 275 274 273 272 271 270 269 268 266 266 265 265 264 259 235 197 177 167 159 152 147 146 146 146 145 142 139 137 134 135 141 146 150 149 145 140 138 139 140 141 141 140
317 318 318 317 315 313 311 309 307 305 303 300 298 295 294 292 291 290 288 287 285 283 281 279 278 277 276 274 272 272 271 271 269 268 267 266 265 265 264 260 248 205 176 166 157 151 146 144 144 144 143 142 137 134 132 132 134 139 143 144 140 136 135 135 138 140 141 141 139
320 320 319 316 314 311 309 307 305 303 301 298 296 294 293 291 290 288 287 286 285 282 281 280 279 278 276 275 273 272 271 270 269 268 267 266 266 265 261 251 220 179 164 157 150 146 144 143 143 143 142 139 134 131 130 131 134 137 138 136 134 134 135 138 141 142 142 140 139
319 318 316 313 311 308 307 305 303 300 298 296 294 293 291 290 289 288 287 286 285 283 282 282 281 279 277 276 275 273 271 270 269 269 269 269 267 261 249 214 177 161 155 150 146 144 143 143 143 143 141 136 133 131 130 131 133 135 135 133 134 136 139 141 143 143 142 140 139
316 315 313 310 308 306 304 303 300 298 296 294 293 292 291 291 290 289 288 287 286 285 284 284 282 280 278 277 276 274 273 271 269 269 269 268 261 244 204 165 157 153 149 146 144 144 144 144 145 144 142 135 134 133 132 133 134 135 136 136 138 141 144 144 144 142 139 138 138
314 312 310 308 306 304 303 301 299 297 296 295 294 293 293 292 291 290 290 288 286 285 284 283 281 280 278 277 277 275 273 271 269 268 266 261 241 198 165 154 152 150 148 146 145 144 145 146 146 145 141 135 134 134 134 134 136 137 138 140 142 145 146 145 142 139 136 136 138
312 310 308 306 305 303 302 300 299 298 297 296 295 295 294 293 292 291 290 288 285 283 282 280 279 279 278 278 277 275 273 272 270 266 258 239 199 169 156 151 150 149 148 148 146 146 146 147 147 145 141 135 135 135 135 136 138 140 142 144 145 146 145 143 139 136 134 135 138
310 309 307 306 304 303 302 301 300 299 298 297 296 295 294 293 291 290 288 286 284 282 280 278 278 278 278 278 277 276 274 273 269 260 237 195 170 159 154 150 149 149 149 149 148 148 148 149 148 146 144 138 138 138 138 140 141 144 146 147 147 145 142 139 136 134 135 137 139